Location: Caprauna
(44.1200°N, 7.5700°E)
Time: 10:41:31
(UTC+01:00)

ISS - Visible Passes

Search period start: 16 November 2018 00:00
Search period end: 26 November 2018 00:00
Orbit: 401 x 408 km, 51.6° (Epoch: 16 November)

Date Brightness Start Highest point End Pass type
(mag) Time Alt. Az. Time Alt. Az. Time Alt. Az.
16 Nov -1.4 05:38:44 13° SSW 05:38:44 13° SSW 05:39:24 10° S visible
22 Nov -1.2 18:40:18 10° SSE 18:40:28 11° SSE 18:40:28 11° SSE visible
23 Nov -1.2 19:22:39 10° SW 19:23:28 16° SW 19:23:28 16° SW visible
24 Nov -2.7 18:30:51 10° SSW 18:33:40 29° SE 18:33:40 29° SE visible
25 Nov -1.8 17:39:34 10° S 17:41:41 16° SE 17:43:48 10° E visible
25 Nov -2.0 19:14:35 10° WSW 19:16:28 31° WSW 19:16:28 31° WSW visible
